Vertical_Velocity
-0 1 3 6 7 6 5 21 18 4 15 10 3 4 -1 5 3 3 2 2 -2 -7 0 1 0 -2 -2 -1 -0 3 2 2 -3 -3 2 4 3 3 2 -0 2 2 -2
2 4 6 8 6 11 10 1 10 5 1 2 2 4 2 -2 -4 -3 -4 -5 -2 -1 -1 -1 -2 -2 -2 -3 -3 -4 -3 -1 -5 -9 -4 -2 10 8 7 1 0 1 -1
2 0 1 -0 9 9 4 2 1 -2 0 1 0 -2 -3 -2 -1 1 3 2 2 2 2 0 0 -2 -1 1 1 1 -1 -2 2 -4 -5 -12 -7 -5 4 -1 -6 -2 1
4 0 4 1 -2 -0 3 -2 -4 2 1 -3 -1 -1 0 -1 -1 -0 0 0 -0 -2 -3 -5 -5 -4 -3 -3 -3 -2 -1 1 2 3 3 2 -3 -4 -9 9 7 -1 -2
0 0 -1 5 -2 -2 2 4 0 -0 6 6 4 8 6 2 -0 -1 -3 -6 -7 -6 -4 -3 -1 -1 -2 -1 1 1 0 -1 1 -2 -3 3 4 4 -11 -16 -4 6 5
-0 -0 -2 5 3 -4 4 3 -5 -6 -1 -1 -3 -2 -5 -3 -3 -2 -3 -4 -4 -2 -0 0 0 -0 -1 -4 -4 -5 -6 -4 -4 -3 -3 -5 -9 -3 -1 -6 -6 -13 1
-1 0 -0 -6 -5 -16 -5 4 -3 -3 -3 -2 -2 -7 -4 -3 -2 -1 0 1 1 -0 -2 -2 -2 -1 1 -2 -4 -4 -3 -5 -1 -3 -2 -3 0 -5 -1 2 1 -10 -8
-2 -5 -7 -0 -0 2 2 3 -5 -3 -1 -3 -2 -0 2 2 1 1 0 1 1 -0 0 -2 -2 -4 -4 -3 -5 -3 -4 -2 -0 -0 -4 -5 1 -2 -4 6 6 -11 -3
-5 -3 -3 -1 -0 -1 3 -4 -4 -2 -2 -1 -1 1 2 1 1 1 -1 -2 -3 -1 -0 -1 -2 -5 -4 -4 -2 -3 -4 -5 1 -2 -1 -4 -1 1 1 3 -1 1 -18
1 2 2 1 1 -0 -0 1 0 4 3 0 2 2 -1 -2 -2 -2 1 -0 -1 -2 -6 -6 -4 -3 -0 -3 -3 5 -1 -2 3 1 1 -1 -1 -1 0 1 -0 2 -5
3 0 0 1 -0 2 4 4 2 -3 -3 1 1 2 1 1 1 -1 -3 -5 -7 -6 -2 -1 -2 -1 -2 1 -0 -1 3 2 2 1 -1 1 -3 -2 -1 1 0 1 3
1 0 -1 -1 -1 -2 2 0 -0 -1 0 3 0 1 0 -1 -3 -6 -5 -1 -2 -1 1 3 -0 -0 -1 0 3 0 2 2 -1 -1 -0 2 -2 1 0 1 2 1 8
1 1 4 2 -0 5 3 2 -3 0 -1 0 -1 -1 -3 -2 1 2 2 2 2 3 5 -0 3 2 0 2 -2 3 -0 -1 -2 -2 -2 -1 -1 3 1 2 3 2 2
3 3 2 2 4 -1 -1 -1 -2 0 -1 -0 2 2 2 1 -1 -1 -1 -1 2 1 -0 1 3 4 5 -0 0 -1 0 -2 0 -2 -2 -2 -2 -2 -2 -0 2 1 -0
3 2 1 1 -0 -1 -0 1 3 2 2 2 1 1 -2 -4 -4 -4 -1 -1 -4 -2 -3 -1 -1 -2 20 -3 1 2 -1 0 -0 0 1 -0 -1 -0 -1 -6 -0 1 1
1 3 5 -1 1 2 1 0 -0 -1 -1 0 -3 -3 -2 -3 -3 -2 -4 -4 -2 -1 -2 -2 -2 3 -2 -2 4 -1 -1 1 -0 -1 2 1 0 1 2 3 2 0 -4
1 -0 -0 2 -0 1 0 -0 1 0 -1 -3 -3 -4 -4 -1 -3 -4 -1 -0 -2 -2 -3 -3 -2 -1 -1 1 0 -1 -1 -2 -2 -0 -2 -1 -1 -1 -1 2 1 0 -0
2 2 2 -0 -0 -0 -0 -0 -2 -2 -3 -3 -3 -2 -3 -3 -1 0 -1 0 -0 -2 -2 -2 -1 1 -0 -2 -1 -2 -2 -1 1 -0 -2 -4 -0 -1 -1 -0 1 1 1
3 2 -1 -1 -1 0 -0 -2 -2 -2 -3 -2 -3 -3 -4 -2 -1 -1 -2 -0 -0 -3 1 -2 -0 -1 -2 -2 -3 -1 1 2 1 -2 -2 -5 -1 -2 -1 -2 -2 -0 1
-3 -1 -1 -2 -1 -0 -1 -1 0 -2 -2 -1 -2 -3 -3 -2 -2 -4 0 1 -0 -1 1 0 -2 -1 -0 -2 -1 -2 1 -2 -1 1 -1 -3 -3 -0 -0 -2 -1 -1 -0
-1 -1 -1 0 0 -1 -1 -2 -1 -2 -2 -2 -1 -2 -2 -3 -0 -2 -2 1 0 -1 -0 -1 -1 -1 -1 -1 -1 -1 -1 -2 -2 -4 -2 0 -1 -0 0 1 -0 -1 -1
0 1 1 -2 -1 -0 -1 -2 -3 -1 -3 -2 -3 -3 -4 -1 -1 -0 -1 -1 -0 0 0 -1 0 -1 -2 -1 -0 -1 -2 -2 -4 -2 -0 -1 -0 0 0 0 1 1 1
1 -0 1 1 -2 -3 -3 -0 -1 -2 -1 0 -1 -3 -1 -2 -2 -0 -1 -1 0 0 -2 -1 -0 -1 -1 -0 -2 -1 -1 -1 -0 -1 -2 -1 -0 0 -0 -1 0 -0 0
-0 1 0 -2 -1 -2 -2 -2 -3 -2 -1 -3 -1 -3 -2 -1 -1 -1 0 -1 -0 -0 -1 1 -0 -1 -0 -1 -2 -1 0 1 -1 1 -0 -1 -2 -2 -1 -1 -0 -0 0
-2 -1 -2 -1 -2 -1 -0 -1 -0 -2 -2 -2 -1 -1 -2 -2 -1 -1 0 -1 0 -0 -0 0 -1 -0 0 -1 -1 -2 -2 -1 -1 0 -1 -1 1 1 0 -1 1 -0 1
-1 -0 -1 -3 -1 -2 -2 -1 -3 -3 -2 -1 -2 -2 -1 -1 -1 -1 0 -2 0 -1 1 0 1 1 0 -1 -2 -1 -1 -0 -1 -0 -1 -1 -2 -0 -0 -0 0 0 -1
Height
3159 3160 3161 3161 3161 3160 3159 3159 3159 3160 3157 3157 3154 3153 3153 3152 3150 3148 3146 3143 3141 3138 3134 3131 3127 3122 3118 3114 3110 3106 3101 3098 3094 3088 3086 3084 3083 3082 3081 3077 3074 3072 3071
3157 3158 3158 3159 3159 3159 3158 3157 3158 3158 3157 3154 3152 3152 3151 3149 3147 3145 3143 3140 3136 3131 3127 3122 3118 3114 3109 3104 3100 3095 3091 3088 3084 3079 3074 3069 3071 3070 3069 3066 3062 3060 3059
3154 3155 3157 3158 3158 3158 3156 3156 3156 3155 3154 3152 3151 3149 3147 3145 3143 3141 3138 3133 3129 3124 3119 3114 3109 3103 3098 3093 3089 3085 3081 3075 3073 3068 3064 3058 3054 3052 3055 3055 3051 3049 3045
3152 3153 3155 3155 3155 3154 3154 3154 3153 3153 3152 3150 3148 3146 3142 3139 3135 3131 3126 3121 3117 3112 3107 3102 3097 3092 3087 3083 3078 3074 3069 3064 3059 3056 3053 3048 3041 3035 3030 3032 3035 3033 3031
3151 3152 3152 3152 3152 3152 3151 3151 3151 3150 3148 3146 3143 3140 3135 3131 3126 3121 3116 3110 3105 3099 3095 3090 3084 3079 3074 3070 3066 3061 3057 3052 3048 3043 3039 3036 3032 3026 3020 3017 3015 3017 3017
3149 3149 3149 3150 3149 3149 3149 3147 3145 3146 3143 3139 3136 3134 3130 3125 3119 3112 3106 3100 3095 3089 3084 3078 3073 3069 3064 3059 3054 3051 3046 3042 3037 3032 3028 3024 3020 3016 3010 3005 3003 3002 3003
3148 3148 3146 3145 3146 3145 3145 3145 3142 3138 3137 3133 3130 3127 3121 3115 3109 3103 3097 3092 3087 3082 3076 3070 3065 3060 3054 3049 3044 3039 3035 3030 3025 3021 3018 3014 3010 3005 3001 2997 2994 2990 2990
3146 3146 3145 3144 3141 3141 3140 3139 3135 3133 3130 3127 3122 3117 3111 3106 3100 3095 3090 3083 3078 3073 3067 3061 3055 3050 3045 3040 3034 3029 3025 3022 3018 3013 3010 3006 3002 2998 2995 2991 2987 2982 2981
3144 3143 3142 3141 3139 3138 3135 3133 3131 3128 3124 3120 3115 3109 3103 3098 3093 3087 3082 3076 3069 3064 3057 3052 3046 3040 3034 3029 3024 3020 3016 3012 3008 3004 3000 2996 2993 2989 2985 2982 2978 2974 2969
3139 3139 3138 3136 3134 3132 3129 3128 3124 3121 3116 3112 3107 3102 3096 3091 3085 3078 3072 3066 3060 3054 3047 3041 3035 3029 3023 3019 3015 3011 3007 3003 3000 2995 2990 2987 2982 2979 2976 2972 2969 2966 2962
3135 3135 3133 3131 3129 3127 3125 3122 3118 3115 3111 3106 3101 3095 3088 3080 3073 3066 3061 3055 3048 3042 3036 3030 3024 3019 3015 3010 3006 3002 2998 2995 2991 2987 2982 2978 2974 2970 2967 2964 2960 2957 2954
3130 3129 3127 3126 3124 3122 3119 3115 3112 3109 3103 3098 3092 3085 3078 3071 3064 3057 3050 3044 3038 3032 3026 3021 3015 3010 3006 3001 2998 2995 2992 2988 2984 2979 2974 2971 2967 2962 2958 2955 2951 2947 2943
3124 3122 3121 3120 3118 3115 3111 3108 3103 3099 3094 3088 3082 3076 3068 3061 3055 3049 3043 3036 3029 3023 3018 3012 3008 3002 2997 2994 2992 2989 2985 2981 2977 2972 2967 2964 2958 2954 2950 2946 2941 2936 2932
3120 3118 3116 3114 3111 3107 3104 3099 3095 3090 3084 3078 3072 3066 3060 3054 3048 3041 3034 3027 3021 3014 3009 3004 2999 2995 2991 2988 2985 2982 2978 2974 2969 2965 2960 2955 2950 2944 2939 2935 2930 2925 2920
3115 3113 3111 3108 3104 3100 3096 3091 3086 3081 3076 3071 3066 3059 3052 3045 3039 3032 3025 3018 3012 3006 3000 2995 2991 2986 2983 2982 2978 2975 2971 2966 2962 2957 2952 2946 2941 2935 2929 2923 2918 2913 2908
3110 3108 3106 3102 3098 3093 3089 3084 3079 3075 3070 3064 3057 3050 3044 3036 3028 3021 3015 3009 3002 2997 2992 2988 2985 2982 2978 2975 2972 2969 2964 2959 2954 2948 2944 2938 2932 2926 2920 2914 2908 2902 2897
3104 3102 3098 3094 3089 3085 3081 3076 3072 3067 3062 3055 3049 3042 3034 3027 3020 3013 3007 3001 2996 2991 2986 2983 2980 2975 2972 2969 2966 2961 2957 2952 2946 2941 2934 2929 2923 2916 2909 2903 2898 2894 2890
3098 3094 3090 3086 3082 3078 3074 3070 3065 3059 3053 3047 3040 3033 3026 3019 3013 3006 3000 2994 2989 2986 2982 2978 2974 2971 2967 2963 2959 2956 2951 2946 2940 2934 2927 2921 2915 2908 2900 2895 2891 2887 2883
3091 3087 3083 3079 3075 3071 3067 3063 3057 3051 3044 3037 3031 3025 3019 3012 3006 2999 2993 2988 2983 2979 2976 2972 2968 2965 2961 2957 2953 2949 2945 2939 2934 2928 2921 2915 2907 2900 2894 2889 2885 2880 2877
3083 3079 3075 3071 3068 3064 3060 3055 3048 3042 3036 3031 3025 3019 3012 3005 2998 2991 2986 2981 2976 2972 2968 2965 2962 2958 2955 2952 2948 2943 2938 2933 2928 2922 2916 2909 2901 2895 2890 2884 2879 2875 2871
3074 3071 3068 3065 3062 3057 3052 3047 3040 3035 3029 3023 3018 3011 3004 2997 2989 2983 2978 2974 2969 2965 2962 2959 2956 2954 2951 2947 2943 2938 2932 2927 2922 2916 2910 2904 2897 2891 2886 2881 2876 2871 2866
3067 3064 3062 3059 3055 3049 3044 3039 3033 3027 3021 3015 3009 3003 2996 2989 2982 2976 2971 2967 2963 2960 2957 2954 2952 2949 2946 2943 2938 2933 2927 2922 2916 2911 2905 2899 2892 2886 2882 2877 2872 2867 2863
3060 3058 3056 3052 3048 3042 3036 3030 3024 3018 3012 3007 3001 2994 2988 2981 2975 2970 2965 2961 2958 2954 2952 2950 2948 2945 2942 2938 2934 2929 2923 2918 2913 2907 2901 2894 2888 2883 2878 2873 2869 2865 2861
3054 3053 3049 3045 3040 3034 3028 3022 3016 3009 3004 2998 2993 2986 2980 2974 2969 2964 2959 2955 2953 2950 2948 2946 2944 2941 2938 2934 2930 2925 2920 2915 2910 2904 2898 2892 2885 2880 2875 2871 2866 2862 2859
3049 3046 3041 3036 3031 3025 3019 3013 3007 3002 2996 2990 2984 2979 2973 2968 2963 2958 2954 2951 2949 2946 2944 2942 2940 2937 2934 2930 2926 2922 2917 2912 2907 2902 2896 2890 2884 2879 2874 2869 2865 2862 2859
3042 3038 3033 3027 3022 3016 3011 3005 2999 2994 2988 2983 2977 2972 2967 2962 2957 2953 2950 2947 2944 2942 2939 2937 2935 2933 2930 2927 2923 2919 2914 2909 2904 2899 2894 2888 2883 2877 2873 2869 2865 2862 2859